Location: Bagnolo San Vito
(45.0833°N, 10.8833°E)
Time: 15:59:54
(UTC+00:00)

Cosmos 2333 Rocket - Visible Passes

Search period start: 13 June 2021 00:00
Search period end: 23 June 2021 00:00
Orbit: 839 x 863 km, 70.8° (Epoch: 12 June)

Date Brightness Start Highest point End Pass type
(mag) Time Alt. Az. Time Alt. Az. Time Alt. Az.
13 Jun 2.4 21:47:25 33° SSE 21:49:41 52° ESE 21:55:16 10° NE visible
13 Jun 3.9 23:29:22 10° WSW 23:34:15 29° NW 23:39:13 10° N visible
14 Jun 2.4 21:34:43 29° S 21:37:26 52° ESE 21:43:00 10° NE visible
14 Jun 3.9 23:17:03 10° WSW 23:21:59 29° NW 23:26:56 10° N visible
15 Jun 2.4 21:21:56 24° S 21:25:11 52° ESE 21:30:44 10° NE visible
15 Jun 3.9 23:04:47 10° WSW 23:09:44 29° NW 23:14:41 10° N visible
16 Jun 2.4 21:09:00 19° S 21:12:54 52° ESE 21:18:27 10° NE visible
16 Jun 4.0 22:52:32 10° WSW 22:57:28 29° NW 23:02:25 10° N visible
17 Jun 2.4 20:55:53 14° S 21:00:38 52° ESE 21:06:12 10° NE visible
17 Jun 4.0 22:40:16 10° WSW 22:45:12 29° NW 22:50:08 10° N visible
18 Jun 2.4 20:42:49 10° S 20:48:23 52° ESE 20:53:56 10° NE visible
18 Jun 4.0 22:28:00 10° WSW 22:32:56 29° NW 22:37:53 10° N visible
19 Jun 2.4 20:30:34 10° S 20:36:06 52° ESE 20:41:40 10° NE visible
19 Jun 4.1 22:15:44 10° WSW 22:20:40 29° NW 22:25:37 10° N visible
20 Jun 2.4 20:18:18 10° S 20:23:51 52° ESE 20:29:24 10° NE visible
20 Jun 4.1 22:03:29 10° WSW 22:08:24 29° NW 22:13:20 10° N visible
21 Jun 2.4 20:06:02 10° S 20:11:35 52° ESE 20:17:08 10° NE visible
21 Jun 4.1 21:51:13 10° WSW 21:56:08 29° NW 22:01:05 10° N visible
22 Jun 2.4 19:53:46 10° S 19:59:19 52° ESE 20:04:52 10° NE visible
22 Jun 4.2 21:38:56 10° WSW 21:43:53 29° NW 21:48:49 10° N visible
